Weather History for KCDC - October, 2012

Change the Weather History Date:

Monday, October 22, 2012

  Actual Average Record
Temperature  
Mean Temperature 59 °F 48 °F  
Max Temperature 65 °F 63 °F 83 °F (2003)
Min Temperature 53 °F 32 °F 15 °F (1996)
Degree Days  
Heating Degree Days 6 18  
Month to date heating degree days 213 301  
Since 1 July heating degree days 285 444  
Cooling Degree Days 0 0  
Month to date cooling degree days 0 0  
Year to date cooling degree days 715 588  
Growing Degree Days 8 (Base 50)    
Moisture  
Dew Point 37 °F    
Average Humidity 50    
Maximum Humidity 66    
Minimum Humidity 34    
Precipitation  
Precipitation 0.00 in 0.04 in 0.88 in (1953)
Month to date precipitation 0.97 0.93  
Year to date precipitation 10.83 9.13  
Sea Level Pressure  
Sea Level Pressure 29.68 in    
Wind  
Wind Speed 19 mph (SSW)    
Max Wind Speed 36 mph    
Max Gust Speed 49 mph    
Visibility 10 miles    
Events      
T = Trace of Precipitation, MM = Missing Value Source: NWS Daily Summary

Daily Weather History Graph

Daily Weather History Graph

Search for Another Location

Airport or City:

Trip Planner

Search our weather history database for the weather conditions in past years. The results will help you decide how hot, cold, wet, or windy it might be!

Date:

Astronomy

Oct. 22, 2012 Rise Set
Actual Time 7:48 AM MDT 6:44 PM MDT
Civil Twilight 7:21 AM MDT 7:11 PM MDT
Nautical Twilight 6:50 AM MDT 7:42 PM MDT
Astronomical Twilight 6:20 AM MDT 8:12 PM MDT
Moon 2:48 PM MDT (10/22) 12:46 AM MDT (10/22)
Length of Visible Light 11h 50m
Length of Day
10h 56m
First Quarter, 57% of the Moon is Illuminated
Oct 22
First Quarter
Oct 29
Full
Nov 6
Last Quarter
Nov 13
New
Nov 20
First Quarter

Hourly Weather History & Observations

Time (MDT) Temp. Dew Point Humidity Pressure Visibility Wind Dir Wind Speed Gust Speed Precip Events Conditions
12:53 AM 57.0 °F 39.9 °F 53% 29.70 in 10.0 mi SSW 20.7 mph 32.2 mph N/A   Mostly Cloudy
1:53 AM 53.1 °F 41.0 °F 64% 29.70 in 10.0 mi SW 10.4 mph - N/A   Scattered Clouds
2:53 AM 54.0 °F 42.1 °F 64% 29.70 in 10.0 mi WSW 8.1 mph - N/A   Mostly Cloudy
3:53 AM 55.0 °F 42.1 °F 62% 29.68 in 10.0 mi South 6.9 mph 18.4 mph N/A   Overcast
4:53 AM 54.0 °F 41.0 °F 62% 29.68 in 10.0 mi South 8.1 mph - N/A   Mostly Cloudy
5:53 AM 54.0 °F 39.9 °F 59% 29.68 in 10.0 mi South 15.0 mph 24.2 mph N/A   Clear
7:53 AM 54.0 °F 39.0 °F 57% 29.69 in 10.0 mi South 21.9 mph 32.2 mph N/A   Clear
8:53 AM 55.9 °F 37.0 °F 49% 29.70 in 10.0 mi South 19.6 mph 29.9 mph N/A   Clear
9:53 AM 55.0 °F 37.9 °F 53% 29.70 in 10.0 mi SSW 21.9 mph 33.4 mph N/A   Clear
11:53 AM 61.0 °F 37.0 °F 41% 29.71 in 10.0 mi South 17.3 mph 31.1 mph N/A   Clear
12:53 PM 63.0 °F 37.0 °F 38% 29.67 in 10.0 mi South 33.4 mph 46.0 mph N/A   Clear
1:53 PM 64.0 °F 36.0 °F 35% 29.68 in 10.0 mi SSW 25.3 mph 38.0 mph N/A   Clear
2:53 PM 64.0 °F 37.0 °F 37% 29.65 in 10.0 mi South 26.5 mph 41.4 mph N/A   Clear
3:53 PM 64.0 °F 35.1 °F 34% 29.63 in 10.0 mi South 35.7 mph 47.2 mph N/A   Clear
4:53 PM 63.0 °F 34.0 °F 34% 29.64 in 10.0 mi SSW 21.9 mph 43.7 mph N/A   Clear
5:53 PM 62.1 °F 33.1 °F 34% 29.65 in 10.0 mi South 24.2 mph 35.7 mph N/A   Partly Cloudy
6:53 PM 59.0 °F 33.1 °F 38% 29.67 in 10.0 mi SSW 19.6 mph 35.7 mph N/A   Clear
7:53 PM 57.9 °F 33.1 °F 39% 29.68 in 10.0 mi South 23.0 mph 39.1 mph N/A   Clear
8:53 PM 57.0 °F 34.0 °F 42% 29.68 in 10.0 mi SSW 23.0 mph 34.5 mph N/A   Clear
9:53 PM 57.0 °F 35.1 °F 44% 29.69 in 10.0 mi SSW 23.0 mph 31.1 mph N/A   Clear
10:53 PM 55.9 °F 36.0 °F 47% 29.69 in 10.0 mi SSW 12.7 mph 25.3 mph N/A   Scattered Clouds